Le nostre stazioni meteo in Italia

Pubblicità
Il mio iltempo24.it
Cozzo Spadaro, Italia (16480): Temperatura & dewpoint: 15.09.2018 05:00:00 - 21.09.2018 05:00:00 (CEST)Cozzo Spadaro, Italia (16480): velocità del vento: 15.09.2018 05:00:00 - 21.09.2018 05:00:00 (CEST)Cozzo Spadaro, Italia (16480): direzione del vento: 15.09.2018 05:00:00 - 21.09.2018 05:00:00 (CEST)Cozzo Spadaro, Italia (16480): reduced air pressure: 15.09.2018 05:00:00 - 21.09.2018 05:00:00 (CEST)Cozzo Spadaro, Italia (16480): visibility: 15.09.2018 05:00:00 - 21.09.2018 05:00:00 (CEST)Cozzo Spadaro, Italia (16480): ore di luce: 15.09.2018 05:00:00 - 21.09.2018 05:00:00 (CEST)
Data & Tempo tt [°C] td [°C] ff [km/h] ff [kn] dd ppp [hPa] vv [km] sd [min]
21.09.2018 05:00:00 - - - - - - - -
21.09.2018 04:00:00 - - - - - - - -
21.09.2018 03:00:00 - - - - - - - -
21.09.2018 02:00:00 - - - - - - - -
21.09.2018 01:00:00 - - - - - - - -
21.09.2018 00:00:00 - - - - - - - -
20.09.2018 23:00:00 - - - - - - - -
20.09.2018 22:00:00 - - - - - - - -
20.09.2018 21:00:00 - - - - - - - -
20.09.2018 20:00:00 25,0 21,3 0 0 N 1013,7 18 0
20.09.2018 19:00:00 26,4 21,2 4 2 O 1013,4 20 18
20.09.2018 18:00:00 27,0 21,1 8 4 OSO 1013,6 25 60
20.09.2018 17:00:00 27,0 21,5 8 4 O 1013,8 20 60
20.09.2018 16:00:00 27,0 22,0 13 7 OSO 1013,9 20 42
20.09.2018 15:00:00 27,0 22,4 9 5 OSO 1014,3 20 24
20.09.2018 14:00:00 27,0 22,2 11 6 SO 1014,9 20 48
20.09.2018 13:00:00 26,0 21,9 9 5 SO 1014,9 20 6
20.09.2018 12:00:00 26,0 21,9 8 4 SO 1015,8 20 18
20.09.2018 11:00:00 25,2 20,2 4 2 O 1015,8 20 0
20.09.2018 10:00:00 24,8 20,7 4 2 ONO 1015,7 20 0
20.09.2018 09:00:00 23,6 20,7 4 2 O 1015,4 15 0
20.09.2018 08:00:00 23,6 20,9 0 0 N 1014,9 15 0
20.09.2018 07:00:00 - - - - - - - -
20.09.2018 06:00:00 - - - - - - - -
20.09.2018 05:00:00 - - - - - - - -
20.09.2018 04:00:00 - - - - - - - -
20.09.2018 03:00:00 - - - - - - - -
20.09.2018 02:00:00 - - - - - - - -
20.09.2018 01:00:00 - - - - - - - -
20.09.2018 00:00:00 - - - - - - - -
19.09.2018 23:00:00 - - - - - - - -
19.09.2018 22:00:00 - - - - - - - -
19.09.2018 21:00:00 - - - - - - - -
19.09.2018 20:00:00 23,0 20,5 0 0 N 1016,0 10 -
19.09.2018 19:00:00 23,2 20,7 11 6 N 1016,1 10 0
19.09.2018 18:00:00 27,0 23,2 15 8 ONO 1015,9 15 42
19.09.2018 17:00:00 28,0 23,6 13 7 O 1015,7 20 60
19.09.2018 16:00:00 28,0 22,9 15 8 O 1015,9 20 60
19.09.2018 15:00:00 28,0 21,1 13 7 O 1016,0 20 60
19.09.2018 14:00:00 27,6 20,4 16 9 O 1016,3 20 60
19.09.2018 13:00:00 27,2 20,8 15 8 OSO 1016,8 20 60
19.09.2018 12:00:00 27,0 22,2 11 6 OSO 1016,9 20 60
19.09.2018 11:00:00 27,0 22,8 11 6 O 1016,9 15 60
19.09.2018 10:00:00 26,0 22,7 5 3 SO 1016,9 15 60
19.09.2018 09:00:00 25,8 22,7 4 2 S 1016,9 15 42
19.09.2018 08:00:00 24,8 21,9 4 2 S 1016,9 15 0
19.09.2018 07:00:00 - - - - - - - -
19.09.2018 06:00:00 - - - - - - - -
19.09.2018 05:00:00 - - - - - - - -
19.09.2018 04:00:00 - - - - - - - -
19.09.2018 03:00:00 - - - - - - - -
19.09.2018 02:00:00 - - - - - - - -
19.09.2018 01:00:00 - - - - - - - -
19.09.2018 00:00:00 - - - - - - - -
18.09.2018 23:00:00 - - - - - - - -
18.09.2018 22:00:00 - - - - - - - -
18.09.2018 21:00:00 - - - - - - - -
18.09.2018 20:00:00 26,0 22,7 9 5 O 1016,6 20 -
18.09.2018 19:00:00 27,0 22,4 5 3 O 1016,9 20 0
18.09.2018 18:00:00 27,2 22,2 5 3 OSO 1016,9 20 60
18.09.2018 17:00:00 27,4 22,1 9 5 OSO 1016,9 20 60
18.09.2018 16:00:00 27,4 23,0 9 5 SO 1017,0 20 60
18.09.2018 15:00:00 27,4 23,2 9 5 S 1017,5 20 60
18.09.2018 14:00:00 27,4 22,8 8 4 SSE 1017,9 20 60
18.09.2018 13:00:00 27,0 22,8 5 3 SE 1017,9 20 60
18.09.2018 12:00:00 27,0 22,8 5 3 SSE 1018,1 20 60
18.09.2018 11:00:00 27,0 22,8 5 3 ESE 1018,1 20 60
18.09.2018 10:00:00 26,0 21,9 4 2 ENE 1017,9 20 60
18.09.2018 09:00:00 25,0 20,9 4 2 NE 1017,8 20 60
18.09.2018 08:00:00 23,2 20,3 2 1 N 1017,8 20 0
18.09.2018 07:00:00 - - - - - - - -
18.09.2018 06:00:00 - - - - - - - -
18.09.2018 05:00:00 - - - - - - - -
18.09.2018 04:00:00 - - - - - - - -
18.09.2018 03:00:00 - - - - - - - -
18.09.2018 02:00:00 - - - - - - - -
18.09.2018 01:00:00 - - - - - - - -
18.09.2018 00:00:00 - - - - - - - -
17.09.2018 23:00:00 - - - - - - - -
17.09.2018 22:00:00 - - - - - - - -
17.09.2018 21:00:00 - - - - - - - -
17.09.2018 20:00:00 26,0 22,9 4 2 O 1017,4 15 0
17.09.2018 19:00:00 26,6 23,3 4 2 NO 1017,4 15 0
17.09.2018 18:00:00 26,8 23,3 4 2 S 1017,8 15 6
17.09.2018 17:00:00 26,8 23,3 4 2 SE 1018,0 15 6
17.09.2018 16:00:00 27,2 23,5 4 2 SE 1018,9 15 36
17.09.2018 15:00:00 27,4 23,2 4 2 ESE 1018,9 15 48
17.09.2018 14:00:00 28,8 24,6 8 4 ESE 1019,2 15 54
17.09.2018 13:00:00 27,6 23,6 9 5 E 1019,4 15 60
17.09.2018 12:00:00 27,6 23,8 11 6 E 1019,5 15 60
17.09.2018 11:00:00 27,6 24,5 11 6 ENE 1018,8 10 60
17.09.2018 10:00:00 26,4 23,5 11 6 ENE 1018,3 15 60
17.09.2018 09:00:00 25,8 23,1 8 4 NE 1018,1 18 60
17.09.2018 08:00:00 24,0 21,5 5 3 N 1018,0 18 6
17.09.2018 07:00:00 - - - - - - - -
17.09.2018 06:00:00 - - - - - - - -
17.09.2018 05:00:00 - - - - - - - -
17.09.2018 04:00:00 - - - - - - - -
17.09.2018 03:00:00 - - - - - - - -
17.09.2018 02:00:00 - - - - - - - -
17.09.2018 01:00:00 - - - - - - - -
17.09.2018 00:00:00 - - - - - - - -
16.09.2018 23:00:00 - - - - - - - -
16.09.2018 22:00:00 - - - - - - - -
16.09.2018 21:00:00 - - - - - - - -
16.09.2018 20:00:00 26,4 23,1 5 3 O 1018,9 15 0
16.09.2018 19:00:00 27,4 23,9 8 4 OSO 1018,8 20 24
16.09.2018 18:00:00 27,8 23,2 5 3 SO 1018,8 20 60
16.09.2018 17:00:00 28,0 23,2 9 5 SO 1018,9 25 60
16.09.2018 16:00:00 28,4 23,8 5 3 S 1018,9 20 60
16.09.2018 15:00:00 28,6 23,5 8 4 SE 1019,2 20 60
16.09.2018 14:00:00 28,6 23,1 11 6 E 1019,7 20 60
16.09.2018 13:00:00 28,2 22,4 11 6 E 1019,9 20 60
16.09.2018 12:00:00 28,0 21,8 8 4 E 1020,0 20 60
16.09.2018 11:00:00 27,6 20,9 5 3 ENE 1019,9 20 60
16.09.2018 10:00:00 27,4 20,5 4 2 NE 1019,1 20 60
16.09.2018 09:00:00 25,8 19,9 4 2 N 1018,9 20 60
16.09.2018 08:00:00 23,8 20,7 4 2 NNE 1018,8 20 18
16.09.2018 07:00:00 - - - - - - - -
16.09.2018 06:00:00 - - - - - - - -
16.09.2018 05:00:00 - - - - - - - -
16.09.2018 04:00:00 - - - - - - - -
16.09.2018 03:00:00 - - - - - - - -
16.09.2018 02:00:00 - - - - - - - -
16.09.2018 01:00:00 - - - - - - - -
16.09.2018 00:00:00 - - - - - - - -
15.09.2018 23:00:00 - - - - - - - -
15.09.2018 22:00:00 - - - - - - - -
15.09.2018 21:00:00 - - - - - - - -
15.09.2018 20:00:00 26,0 22,9 0 0 N 1017,9 10 0
15.09.2018 19:00:00 26,8 23,1 0 0 N 1017,5 10 18
15.09.2018 18:00:00 27,6 23,0 4 2 SE 1017,7 25 60
15.09.2018 17:00:00 28,0 22,9 8 4 SE 1017,8 25 60
15.09.2018 16:00:00 28,0 22,5 9 5 ESE 1017,3 25 60
15.09.2018 15:00:00 28,2 22,2 9 5 E 1017,9 25 60
15.09.2018 14:00:00 28,0 22,3 11 6 E 1017,9 25 60
15.09.2018 13:00:00 28,0 22,2 13 7 ENE 1017,9 25 60
15.09.2018 12:00:00 27,6 22,3 15 8 ENE 1017,8 25 60
15.09.2018 11:00:00 27,0 22,4 16 9 ENE 1017,5 25 60
15.09.2018 10:00:00 26,0 22,3 18 10 ENE 1016,9 20 18
15.09.2018 09:00:00 26,0 23,1 18 10 NE 1016,6 20 18
15.09.2018 08:00:00 24,4 21,7 16 9 NE 1015,9 20 0
15.09.2018 07:00:00 - - - - - - - -
15.09.2018 06:00:00 - - - - - - - -
15.09.2018 05:00:00 - - - - - - - -

tt = Temperatura
td = dewpoint
ff = velocità del vento
dd = direzione del vento
ppp = reduced air pressure
vv = visibility
sd = ore di luce

Stazioni seguenti

WeatherPro
AMSI
MeteoEarth